QPF
0.00 0.00 0.01 0.01 0.00 0.01 0.01 0.01 0.02 0.02 0.02 0.02 0.01 0.01 0.01 0.01 0.01 0.00 0.01 0.01 0.01 0.01 0.02 0.03 0.03 0.01 0.01 0.01 0.03 0.03 0.05 0.04 0.05 0.06 0.07 0.07 0.04 0.02 0.01 0.01 0.01 0.02 0.01
0.00 0.00 0.00 0.00 0.00 0.00 0.01 0.01 0.02 0.02 0.02 0.02 0.02 0.01 0.01 0.00 0.00 0.00 0.01 0.01 0.01 0.01 0.02 0.03 0.03 0.01 0.02 0.02 0.02 0.03 0.04 0.04 0.05 0.06 0.06 0.05 0.04 0.03 0.01 0.01 0.01 0.03 0.01
0.00 0.00 0.00 0.00 0.00 0.00 0.01 0.01 0.01 0.02 0.02 0.02 0.02 0.01 0.00 0.00 0.00 0.00 0.00 0.00 0.01 0.01 0.02 0.02 0.03 0.04 0.04 0.03 0.03 0.03 0.04 0.05 0.06 0.05 0.04 0.04 0.04 0.03 0.02 0.02 0.03 0.03 0.04
0.00 0.00 0.00 0.00 0.01 0.01 0.01 0.02 0.02 0.01 0.02 0.04 0.03 0.01 0.00 0.00 0.00 0.00 0.00 0.00 0.00 0.01 0.01 0.02 0.03 0.04 0.05 0.05 0.04 0.04 0.05 0.07 0.08 0.04 0.02 0.03 0.03 0.03 0.02 0.02 0.03 0.04 0.05
0.00 0.00 0.00 0.01 0.01 0.01 0.02 0.02 0.03 0.03 0.04 0.06 0.05 0.02 0.01 0.00 0.00 0.00 0.00 0.00 0.00 0.01 0.01 0.01 0.02 0.04 0.04 0.04 0.04 0.04 0.06 0.08 0.07 0.04 0.03 0.04 0.06 0.04 0.03 0.03 0.04 0.05 0.06
0.00 0.00 0.00 0.01 0.01 0.01 0.01 0.02 0.03 0.04 0.04 0.04 0.04 0.02 0.01 0.01 0.00 0.00 0.00 0.00 0.00 0.00 0.00 0.01 0.01 0.01 0.01 0.02 0.02 0.04 0.07 0.10 0.07 0.05 0.05 0.04 0.05 0.04 0.03 0.04 0.06 0.07 0.07
0.00 0.00 0.00 0.01 0.01 0.01 0.01 0.02 0.03 0.04 0.05 0.04 0.03 0.03 0.01 0.01 0.00 0.00 0.00 0.00 0.00 0.00 0.00 0.00 0.01 0.01 0.01 0.01 0.02 0.04 0.07 0.07 0.06 0.07 0.05 0.04 0.04 0.03 0.02 0.03 0.06 0.09 0.06
0.00 0.00 0.00 0.01 0.01 0.01 0.01 0.01 0.02 0.04 0.06 0.06 0.04 0.03 0.02 0.02 0.01 0.00 0.00 0.00 0.00 0.00 0.00 0.00 0.00 0.00 0.01 0.01 0.02 0.04 0.05 0.03 0.03 0.04 0.03 0.04 0.03 0.03 0.02 0.04 0.06 0.08 0.07
0.00 0.00 0.00 0.01 0.01 0.01 0.01 0.02 0.02 0.03 0.06 0.07 0.06 0.03 0.03 0.02 0.01 0.00 0.00 0.00 0.00 0.00 0.00 0.00 0.00 0.00 0.01 0.01 0.02 0.03 0.03 0.02 0.01 0.01 0.01 0.03 0.03 0.04 0.04 0.05 0.08 0.09 0.08
0.00 0.00 0.00 0.00 0.01 0.01 0.01 0.01 0.02 0.03 0.06 0.07 0.05 0.04 0.03 0.02 0.01 0.00 0.00 0.00 0.00 0.00 0.00 0.00 0.00 0.00 0.00 0.01 0.02 0.03 0.02 0.01 0.00 0.01 0.02 0.03 0.04 0.06 0.06 0.07 0.07 0.08 0.07
0.00 0.00 0.00 0.00 0.00 0.00 0.01 0.01 0.03 0.05 0.07 0.06 0.05 0.03 0.02 0.01 0.00 0.00 0.00 0.00 0.00 0.00 0.00 0.00 0.00 0.00 0.00 0.00 0.02 0.01 0.00 0.00 0.00 0.00 0.02 0.04 0.05 0.07 0.07 0.06 0.06 0.07 0.07
0.00 0.00 0.00 0.00 0.00 0.00 0.00 0.01 0.05 0.05 0.04 0.04 0.05 0.03 0.01 0.01 0.00 0.00 0.00 0.00 0.00 0.00 0.00 0.00 0.00 0.00 0.00 0.00 0.01 0.00 0.00 0.00 0.00 0.00 0.01 0.03 0.04 0.05 0.06 0.06 0.06 0.07 0.06
0.00 0.00 0.00 0.00 0.00 0.00 0.00 0.01 0.03 0.04 0.05 0.05 0.03 0.02 0.02 0.00 0.00 0.00 0.00 0.00 0.00 0.00 0.00 0.00 0.00 0.00 0.00 0.00 0.00 0.00 0.00 0.00 0.00 0.00 0.01 0.01 0.02 0.03 0.03 0.03 0.04 0.05 0.05
0.00 0.00 0.00 0.00 0.00 0.00 0.00 0.00 0.01 0.02 0.02 0.03 0.01 0.00 0.01 0.00 0.00 0.00 0.00 0.00 0.00 0.00 0.00 0.00 0.00 0.00 0.00 0.00 0.00 0.00 0.00 0.00 0.00 0.00 0.01 0.02 0.02 0.02 0.02 0.01 0.02 0.02 0.03
0.00 0.00 0.00 0.00 0.00 0.00 0.00 0.00 0.00 0.00 0.01 0.01 0.01 0.00 0.00 0.00 0.00 0.00 0.00 0.00 0.00 0.00 0.00 0.00 0.00 0.00 0.00 0.00 0.00 0.00 0.00 0.00 0.00 0.00 0.01 0.02 0.02 0.03 0.03 0.02 0.02 0.01 0.02
0.00 0.00 0.00 0.00 0.00 0.00 0.00 0.00 0.00 0.00 0.00 0.00 0.01 0.00 0.00 0.00 0.00 0.00 0.00 0.00 0.00 0.00 0.00 0.00 0.00 0.00 0.00 0.00 0.00 0.00 0.00 0.00 0.00 0.00 0.01 0.01 0.02 0.03 0.04 0.04 0.03 0.02 0.01
0.00 0.00 0.00 0.00 0.00 0.00 0.00 0.00 0.00 0.00 0.00 0.00 0.00 0.00 0.00 0.00 0.00 0.00 0.00 0.00 0.00 0.00 0.00 0.00 0.00 0.00 0.00 0.00 0.00 0.01 0.01 0.00 0.00 0.00 0.00 0.01 0.01 0.01 0.03 0.04 0.04 0.03 0.02
0.00 0.00 0.00 0.00 0.00 0.00 0.00 0.00 0.00 0.00 0.00 0.00 0.00 0.00 0.00 0.01 0.01 0.02 0.03 0.03 0.01 0.00 0.00 0.00 0.00 0.00 0.01 0.01 0.01 0.01 0.01 0.00 0.00 0.00 0.00 0.00 0.01 0.01 0.02 0.03 0.03 0.03 0.03
0.00 0.00 0.00 0.00 0.00 0.00 0.00 0.00 0.00 0.00 0.00 0.00 0.00 0.00 0.01 0.02 0.03 0.06 0.11 0.10 0.04 0.02 0.02 0.01 0.01 0.01 0.02 0.03 0.03 0.03 0.01 0.00 0.00 0.00 0.00 0.00 0.00 0.01 0.02 0.01 0.02 0.03 0.04
0.01 0.00 0.00 0.00 0.00 0.00 0.00 0.00 0.01 0.01 0.01 0.01 0.01 0.01 0.02 0.03 0.07 0.13 0.19 0.18 0.11 0.08 0.06 0.04 0.03 0.03 0.04 0.05 0.03 0.02 0.01 0.00 0.00 0.00 0.00 0.00 0.00 0.00 0.00 0.00 0.01 0.02 0.02
0.03 0.02 0.01 0.00 0.00 0.01 0.01 0.03 0.04 0.05 0.05 0.04 0.03 0.02 0.02 0.04 0.10 0.18 0.21 0.24 0.21 0.17 0.15 0.09 0.07 0.05 0.04 0.04 0.05 0.05 0.02 0.00 0.00 0.00 0.00 0.00 0.00 0.00 0.00 0.00 0.01 0.01 0.01
0.03 0.02 0.01 0.00 0.01 0.03 0.06 0.11 0.16 0.17 0.15 0.13 0.11 0.07 0.06 0.07 0.12 0.13 0.19 0.23 0.24 0.22 0.22 0.16 0.13 0.11 0.08 0.05 0.07 0.08 0.05 0.02 0.01 0.01 0.00 0.00 0.00 0.00 0.00 0.00 0.00 0.00 0.00
0.03 0.02 0.01 0.00 0.02 0.08 0.16 0.27 0.33 0.36 0.36 0.32 0.25 0.17 0.12 0.11 0.14 0.14 0.14 0.18 0.20 0.19 0.22 0.22 0.17 0.16 0.15 0.10 0.07 0.08 0.08 0.07 0.05 0.02 0.01 0.01 0.01 0.00 0.00 0.00 0.00 0.00 0.00
0.03 0.02 0.01 0.02 0.06 0.15 0.27 0.40 0.46 0.53 0.56 0.47 0.34 0.21 0.15 0.11 0.13 0.12 0.11 0.11 0.12 0.13 0.16 0.17 0.15 0.15 0.15 0.14 0.11 0.10 0.09 0.09 0.08 0.05 0.02 0.00 0.01 0.01 0.00 0.00 0.00 0.00 0.00
0.01 0.02 0.02 0.06 0.13 0.24 0.33 0.44 0.57 0.63 0.59 0.48 0.35 0.24 0.16 0.10 0.08 0.08 0.07 0.07 0.08 0.08 0.09 0.10 0.10 0.10 0.11 0.13 0.14 0.13 0.12 0.11 0.09 0.08 0.05 0.02 0.01 0.01 0.01 0.00 0.00 0.00 0.00
0.02 0.02 0.04 0.07 0.16 0.28 0.37 0.45 0.52 0.57 0.55 0.44 0.33 0.23 0.15 0.09 0.07 0.05 0.04 0.04 0.03 0.03 0.03 0.04 0.06 0.06 0.07 0.09 0.11 0.12 0.13 0.13 0.12 0.11 0.08 0.05 0.03 0.01 0.00 0.00 0.00 0.00 0.00
MSLP
1012.39 1012.32 1012.34 1012.47 1012.67 1012.90 1013.13 1013.33 1013.48 1013.58 1013.65 1013.72 1013.82 1013.96 1014.14 1014.34 1014.55 1014.73 1014.86 1014.93 1014.95 1014.92 1014.87 1014.82 1014.79 1014.80 1014.84 1014.91 1015.00 1015.09 1015.17 1015.23 1015.27 1015.28 1015.26 1015.21 1015.14 1015.05 1014.96 1014.87 1014.80 1014.76 1014.77
1012.23 1012.23 1012.32 1012.51 1012.76 1013.05 1013.31 1013.53 1013.69 1013.78 1013.83 1013.88 1013.96 1014.08 1014.26 1014.47 1014.68 1014.88 1015.02 1015.09 1015.10 1015.06 1015.00 1014.94 1014.90 1014.89 1014.92 1014.98 1015.06 1015.13 1015.20 1015.25 1015.29 1015.31 1015.31 1015.29 1015.25 1015.19 1015.12 1015.05 1014.98 1014.93 1014.91
1012.01 1012.08 1012.24 1012.51 1012.84 1013.19 1013.51 1013.77 1013.94 1014.04 1014.08 1014.10 1014.15 1014.25 1014.41 1014.60 1014.80 1014.99 1015.12 1015.19 1015.20 1015.15 1015.09 1015.03 1014.98 1014.98 1015.00 1015.04 1015.10 1015.15 1015.19 1015.23 1015.25 1015.27 1015.28 1015.29 1015.30 1015.30 1015.27 1015.23 1015.18 1015.13 1015.08
1011.75 1011.89 1012.13 1012.47 1012.89 1013.32 1013.71 1014.02 1014.22 1014.33 1014.36 1014.37 1014.40 1014.47 1014.59 1014.75 1014.94 1015.10 1015.22 1015.27 1015.27 1015.23 1015.17 1015.12 1015.09 1015.09 1015.11 1015.15 1015.18 1015.20 1015.20 1015.19 1015.19 1015.19 1015.22 1015.26 1015.32 1015.37 1015.40 1015.41 1015.39 1015.34 1015.28
1011.51 1011.70 1012.00 1012.42 1012.91 1013.42 1013.87 1014.23 1014.47 1014.60 1014.64 1014.64 1014.65 1014.70 1014.79 1014.93 1015.09 1015.23 1015.33 1015.38 1015.38 1015.35 1015.30 1015.27 1015.26 1015.27 1015.30 1015.32 1015.33 1015.30 1015.26 1015.19 1015.15 1015.13 1015.15 1015.22 1015.31 1015.42 1015.52 1015.58 1015.60 1015.57 1015.51
1011.33 1011.55 1011.90 1012.36 1012.91 1013.47 1013.97 1014.37 1014.64 1014.79 1014.85 1014.85 1014.86 1014.90 1014.99 1015.12 1015.27 1015.40 1015.49 1015.53 1015.53 1015.51 1015.48 1015.47 1015.49 1015.52 1015.55 1015.57 1015.55 1015.47 1015.37 1015.26 1015.15 1015.10 1015.11 1015.19 1015.31 1015.47 1015.62 1015.74 1015.79 1015.79 1015.74
1011.25 1011.47 1011.83 1012.32 1012.88 1013.46 1013.98 1014.40 1014.69 1014.86 1014.93 1014.96 1014.99 1015.05 1015.16 1015.30 1015.45 1015.58 1015.68 1015.72 1015.73 1015.72 1015.71 1015.72 1015.75 1015.80 1015.84 1015.84 1015.79 1015.69 1015.53 1015.37 1015.22 1015.13 1015.11 1015.19 1015.34 1015.52 1015.71 1015.86 1015.96 1015.98 1015.95
1011.26 1011.46 1011.81 1012.28 1012.83 1013.39 1013.90 1014.31 1014.60 1014.77 1014.87 1014.93 1015.00 1015.10 1015.25 1015.43 1015.61 1015.76 1015.87 1015.93 1015.94 1015.94 1015.94 1015.96 1016.00 1016.06 1016.09 1016.09 1016.02 1015.88 1015.70 1015.49 1015.31 1015.19 1015.17 1015.24 1015.39 1015.59 1015.80 1015.97 1016.09 1016.13 1016.12
1011.33 1011.52 1011.83 1012.27 1012.77 1013.28 1013.75 1014.12 1014.38 1014.55 1014.67 1014.76 1014.88 1015.04 1015.25 1015.48 1015.71 1015.89 1016.02 1016.09 1016.11 1016.11 1016.10 1016.12 1016.16 1016.21 1016.24 1016.22 1016.14 1015.99 1015.80 1015.58 1015.39 1015.27 1015.25 1015.32 1015.48 1015.68 1015.89 1016.07 1016.19 1016.24 1016.25
1011.42 1011.59 1011.88 1012.27 1012.71 1013.15 1013.54 1013.86 1014.08 1014.24 1014.37 1014.50 1014.67 1014.89 1015.16 1015.44 1015.72 1015.94 1016.09 1016.17 1016.19 1016.18 1016.17 1016.17 1016.18 1016.21 1016.23 1016.20 1016.12 1015.99 1015.80 1015.61 1015.45 1015.36 1015.35 1015.44 1015.60 1015.81 1016.01 1016.17 1016.28 1016.33 1016.34
1011.47 1011.65 1011.91 1012.26 1012.64 1013.01 1013.33 1013.58 1013.76 1013.90 1014.03 1014.18 1014.39 1014.66 1014.98 1015.32 1015.63 1015.88 1016.05 1016.14 1016.16 1016.14 1016.11 1016.08 1016.07 1016.08 1016.07 1016.04 1015.97 1015.85 1015.71 1015.57 1015.46 1015.43 1015.47 1015.59 1015.77 1015.97 1016.16 1016.30 1016.39 1016.42 1016.42
1011.46 1011.65 1011.91 1012.23 1012.56 1012.87 1013.13 1013.33 1013.47 1013.59 1013.71 1013.87 1014.11 1014.40 1014.75 1015.11 1015.45 1015.72 1015.91 1016.00 1016.03 1016.00 1015.95 1015.90 1015.87 1015.84 1015.82 1015.78 1015.71 1015.63 1015.54 1015.47 1015.45 1015.48 1015.59 1015.76 1015.96 1016.17 1016.34 1016.46 1016.52 1016.53 1016.52
1011.34 1011.57 1011.85 1012.16 1012.47 1012.74 1012.96 1013.12 1013.23 1013.33 1013.44 1013.61 1013.84 1014.14 1014.49 1014.86 1015.19 1015.48 1015.67 1015.78 1015.82 1015.79 1015.75 1015.69 1015.63 1015.59 1015.55 1015.50 1015.45 1015.40 1015.37 1015.37 1015.42 1015.54 1015.72 1015.94 1016.18 1016.39 1016.55 1016.65 1016.68 1016.67 1016.65
1011.13 1011.40 1011.71 1012.03 1012.33 1012.59 1012.80 1012.95 1013.06 1013.15 1013.26 1013.41 1013.63 1013.91 1014.23 1014.58 1014.90 1015.18 1015.39 1015.52 1015.58 1015.59 1015.56 1015.52 1015.46 1015.41 1015.35 1015.30 1015.26 1015.24 1015.25 1015.31 1015.43 1015.62 1015.86 1016.12 1016.38 1016.60 1016.75 1016.84 1016.85 1016.83 1016.80
1010.86 1011.15 1011.48 1011.82 1012.13 1012.41 1012.63 1012.79 1012.91 1013.02 1013.13 1013.28 1013.47 1013.72 1014.00 1014.30 1014.60 1014.87 1015.09 1015.26 1015.37 1015.43 1015.45 1015.45 1015.42 1015.37 1015.32 1015.26 1015.22 1015.21 1015.24 1015.33 1015.50 1015.73 1016.00 1016.28 1016.55 1016.77 1016.91 1016.99 1016.99 1016.97 1016.95
1010.55 1010.84 1011.17 1011.51 1011.84 1012.13 1012.39 1012.60 1012.76 1012.90 1013.04 1013.19 1013.36 1013.57 1013.80 1014.06 1014.32 1014.58 1014.82 1015.03 1015.20 1015.34 1015.44 1015.50 1015.52 1015.51 1015.47 1015.41 1015.36 1015.34 1015.36 1015.46 1015.63 1015.86 1016.13 1016.40 1016.66 1016.86 1016.99 1017.05 1017.07 1017.06 1017.06
1010.26 1010.50 1010.79 1011.11 1011.44 1011.76 1012.06 1012.32 1012.56 1012.76 1012.94 1013.11 1013.27 1013.45 1013.64 1013.85 1014.08 1014.32 1014.58 1014.83 1015.08 1015.31 1015.50 1015.65 1015.74 1015.77 1015.75 1015.70 1015.64 1015.60 1015.60 1015.67 1015.81 1016.00 1016.24 1016.47 1016.68 1016.85 1016.95 1017.01 1017.04 1017.06 1017.11
1009.99 1010.13 1010.35 1010.62 1010.93 1011.27 1011.61 1011.95 1012.27 1012.56 1012.81 1013.02 1013.21 1013.37 1013.53 1013.70 1013.89 1014.11 1014.38 1014.67 1014.98 1015.29 1015.58 1015.81 1015.98 1016.07 1016.09 1016.05 1015.99 1015.93 1015.90 1015.93 1016.01 1016.15 1016.31 1016.49 1016.64 1016.75 1016.82 1016.87 1016.91 1016.97 1017.07
1009.76 1009.77 1009.87 1010.06 1010.34 1010.68 1011.07 1011.49 1011.91 1012.30 1012.64 1012.93 1013.16 1013.33 1013.47 1013.61 1013.76 1013.96 1014.21 1014.52 1014.87 1015.24 1015.60 1015.91 1016.15 1016.31 1016.37 1016.36 1016.31 1016.24 1016.19 1016.18 1016.21 1016.28 1016.37 1016.46 1016.54 1016.59 1016.63 1016.66 1016.71 1016.80 1016.95
1009.58 1009.43 1009.40 1009.49 1009.71 1010.04 1010.47 1010.96 1011.49 1012.00 1012.46 1012.84 1013.13 1013.33 1013.47 1013.59 1013.70 1013.85 1014.07 1014.36 1014.71 1015.11 1015.51 1015.87 1016.17 1016.39 1016.50 1016.54 1016.51 1016.46 1016.40 1016.37 1016.36 1016.38 1016.40 1016.43 1016.43 1016.43 1016.41 1016.42 1016.47 1016.59 1016.79
1009.43 1009.14 1008.96 1008.95 1009.09 1009.40 1009.86 1010.43 1011.06 1011.69 1012.27 1012.76 1013.13 1013.39 1013.54 1013.63 1013.69 1013.79 1013.94 1014.18 1014.50 1014.87 1015.27 1015.66 1015.99 1016.25 1016.42 1016.51 1016.53 1016.52 1016.50 1016.47 1016.46 1016.45 1016.43 1016.41 1016.36 1016.30 1016.24 1016.22 1016.26 1016.39 1016.62
1009.35 1008.91 1008.61 1008.49 1008.57 1008.86 1009.33 1009.96 1010.68 1011.42 1012.12 1012.71 1013.17 1013.48 1013.65 1013.72 1013.74 1013.76 1013.83 1013.99 1014.23 1014.54 1014.90 1015.27 1015.62 1015.91 1016.12 1016.27 1016.37 1016.42 1016.45 1016.47 1016.49 1016.49 1016.47 1016.42 1016.33 1016.23 1016.14 1016.09 1016.11 1016.23 1016.47
1009.33 1008.80 1008.40 1008.20 1008.22 1008.47 1008.95 1009.61 1010.39 1011.22 1012.01 1012.70 1013.23 1013.59 1013.78 1013.83 1013.81 1013.76 1013.74 1013.79 1013.93 1014.16 1014.45 1014.77 1015.10 1015.41 1015.66 1015.87 1016.04 1016.17 1016.29 1016.38 1016.45 1016.49 1016.49 1016.45 1016.36 1016.24 1016.12 1016.03 1016.03 1016.13 1016.35
1009.43 1008.84 1008.38 1008.12 1008.08 1008.29 1008.75 1009.42 1010.23 1011.10 1011.95 1012.70 1013.28 1013.68 1013.89 1013.93 1013.87 1013.76 1013.65 1013.61 1013.64 1013.78 1013.99 1014.25 1014.55 1014.85 1015.13 1015.39 1015.62 1015.83 1016.03 1016.20 1016.35 1016.45 1016.50 1016.48 1016.40 1016.28 1016.15 1016.04 1016.00 1016.07 1016.25
1009.68 1009.08 1008.59 1008.28 1008.19 1008.36 1008.77 1009.40 1010.19 1011.06 1011.92 1012.68 1013.29 1013.70 1013.92 1013.96 1013.88 1013.73 1013.56 1013.44 1013.40 1013.45 1013.58 1013.79 1014.05 1014.33 1014.62 1014.91 1015.19 1015.46 1015.72 1015.97 1016.18 1016.35 1016.45 1016.47 1016.42 1016.31 1016.18 1016.05 1015.98 1016.01 1016.15
1010.11 1009.53 1009.03 1008.69 1008.56 1008.66 1008.99 1009.55 1010.26 1011.07 1011.88 1012.61 1013.21 1013.62 1013.84 1013.89 1013.81 1013.64 1013.46 1013.30 1013.22 1013.21 1013.30 1013.46 1013.68 1013.93 1014.21 1014.50 1014.80 1015.10 1015.40 1015.69 1015.95 1016.16 1016.31 1016.38 1016.36 1016.28 1016.15 1016.01 1015.92 1015.91 1016.00
Thickness
5806 5805 5797 5794 5792 5790 5788 5786 5784 5781 5779 5777 5775 5774 5772 5771 5770 5769 5768 5768 5768 5768 5769 5769 5770 5771 5771 5772 5773 5773 5774 5774 5775 5775 5776 5776 5777 5778 5779 5780 5782 5785 5783
5811 5806 5798 5795 5793 5790 5788 5786 5783 5781 5779 5777 5775 5773 5771 5770 5768 5767 5767 5767 5767 5767 5767 5767 5768 5768 5768 5769 5770 5770 5771 5771 5772 5773 5773 5774 5774 5775 5776 5777 5779 5782 5781
5812 5807 5799 5796 5793 5791 5788 5786 5784 5781 5779 5776 5774 5772 5770 5769 5767 5766 5765 5765 5765 5765 5765 5765 5765 5765 5765 5766 5767 5767 5768 5769 5769 5770 5771 5773 5772 5772 5773 5774 5775 5777 5777
5811 5806 5802 5796 5793 5791 5788 5786 5784 5782 5779 5776 5774 5771 5770 5768 5766 5765 5764 5763 5763 5763 5763 5763 5763 5763 5763 5763 5764 5765 5765 5766 5767 5768 5772 5772 5772 5769 5770 5771 5772 5773 5774
5809 5806 5801 5795 5793 5790 5788 5786 5784 5782 5779 5776 5774 5771 5769 5767 5765 5764 5763 5762 5761 5761 5760 5760 5760 5760 5760 5761 5761 5762 5763 5764 5764 5767 5769 5769 5768 5767 5767 5768 5769 5769 5770
5808 5805 5800 5795 5792 5790 5788 5786 5784 5781 5779 5776 5774 5771 5769 5766 5764 5762 5761 5760 5759 5758 5758 5758 5758 5758 5758 5759 5759 5760 5761 5762 5763 5766 5766 5767 5766 5764 5764 5765 5765 5766 5766
5808 5805 5800 5794 5791 5789 5787 5785 5783 5781 5779 5776 5773 5771 5768 5766 5764 5761 5760 5759 5757 5756 5756 5755 5755 5756 5756 5757 5757 5758 5758 5760 5764 5763 5764 5765 5764 5762 5762 5762 5762 5762 5763
5809 5805 5801 5793 5791 5789 5787 5785 5783 5780 5778 5776 5773 5771 5768 5766 5763 5761 5759 5757 5756 5755 5754 5753 5753 5754 5754 5755 5755 5756 5756 5758 5762 5763 5763 5763 5760 5760 5760 5760 5760 5759 5760
5810 5806 5802 5796 5792 5788 5786 5784 5782 5780 5777 5775 5773 5770 5768 5765 5763 5760 5758 5756 5755 5753 5752 5752 5752 5752 5753 5753 5753 5753 5754 5756 5761 5761 5762 5761 5758 5758 5758 5757 5757 5757 5757
5810 5807 5804 5800 5796 5792 5788 5784 5781 5779 5776 5774 5772 5769 5767 5764 5762 5760 5758 5756 5754 5752 5751 5750 5750 5751 5751 5751 5751 5751 5752 5755 5758 5759 5760 5758 5755 5755 5755 5755 5755 5755 5755
5807 5807 5804 5801 5797 5794 5791 5786 5781 5778 5775 5773 5771 5768 5766 5767 5765 5761 5759 5755 5753 5751 5750 5749 5749 5749 5750 5750 5750 5750 5752 5756 5756 5757 5756 5752 5752 5753 5753 5752 5752 5752 5752
5804 5805 5805 5802 5798 5794 5791 5787 5783 5780 5776 5775 5774 5770 5769 5769 5767 5764 5756 5754 5752 5751 5749 5748 5748 5749 5751 5754 5751 5750 5755 5754 5755 5755 5752 5749 5750 5750 5750 5750 5750 5750 5749
5807 5804 5803 5801 5797 5794 5790 5787 5783 5781 5777 5775 5775 5771 5769 5768 5765 5762 5760 5755 5754 5751 5753 5748 5750 5753 5754 5753 5753 5753 5752 5753 5754 5753 5750 5747 5747 5748 5748 5748 5748 5747 5747
5807 5804 5803 5800 5797 5792 5790 5787 5784 5781 5778 5775 5773 5772 5768 5766 5765 5764 5761 5759 5757 5755 5753 5753 5752 5752 5752 5753 5753 5752 5750 5750 5749 5748 5746 5743 5744 5745 5745 5745 5745 5745 5745
5806 5803 5802 5798 5797 5793 5789 5785 5782 5780 5778 5775 5771 5770 5767 5764 5764 5762 5760 5756 5756 5754 5752 5751 5752 5752 5751 5751 5750 5749 5748 5746 5745 5744 5743 5740 5740 5740 5741 5742 5742 5743 5743
5805 5803 5801 5797 5794 5792 5788 5783 5780 5778 5774 5773 5769 5767 5766 5763 5762 5759 5759 5755 5754 5753 5752 5751 5751 5749 5749 5748 5746 5744 5743 5743 5741 5740 5740 5738 5736 5736 5737 5738 5738 5739 5740
5805 5804 5800 5796 5793 5789 5786 5782 5778 5774 5773 5770 5767 5765 5764 5762 5760 5757 5757 5755 5753 5750 5750 5748 5748 5747 5746 5744 5742 5741 5740 5739 5738 5737 5736 5735 5734 5732 5732 5733 5733 5734 5735
5803 5802 5800 5794 5790 5787 5783 5778 5775 5772 5770 5767 5765 5763 5762 5760 5758 5756 5754 5752 5750 5748 5747 5745 5744 5743 5742 5740 5740 5738 5737 5734 5735 5734 5733 5732 5731 5730 5728 5727 5728 5729 5730
5799 5798 5797 5793 5788 5785 5781 5775 5772 5770 5766 5764 5762 5760 5758 5758 5756 5753 5750 5748 5747 5744 5743 5742 5741 5740 5738 5735 5735 5733 5734 5732 5731 5729 5730 5729 5727 5725 5725 5722 5722 5723 5724
5795 5796 5794 5793 5787 5783 5777 5773 5768 5765 5763 5761 5759 5757 5755 5754 5752 5750 5746 5744 5743 5740 5738 5738 5737 5734 5733 5731 5731 5729 5729 5728 5727 5726 5726 5724 5724 5722 5722 5721 5721 5719 5719
5788 5790 5791 5788 5786 5780 5774 5767 5762 5758 5757 5755 5753 5752 5750 5749 5748 5746 5744 5741 5738 5736 5734 5734 5733 5730 5728 5729 5724 5720 5722 5724 5725 5723 5722 5721 5721 5718 5716 5716 5717 5717 5717
5781 5784 5787 5786 5783 5778 5772 5767 5761 5756 5752 5749 5746 5746 5745 5745 5744 5743 5741 5738 5736 5733 5731 5730 5728 5725 5724 5724 5719 5712 5711 5714 5716 5720 5719 5717 5718 5716 5715 5713 5714 5712 5713
5771 5776 5780 5782 5780 5776 5769 5761 5755 5749 5744 5739 5738 5738 5739 5739 5739 5737 5737 5736 5734 5732 5729 5728 5726 5722 5718 5719 5720 5714 5708 5706 5711 5715 5717 5715 5714 5713 5712 5712 5711 5710 5709
5762 5769 5773 5776 5774 5771 5764 5756 5749 5741 5735 5731 5730 5731 5732 5733 5734 5733 5733 5733 5732 5730 5727 5726 5725 5721 5717 5713 5713 5713 5713 5710 5703 5703 5708 5711 5711 5709 5709 5708 5707 5707 5706
5750 5757 5763 5765 5763 5761 5756 5750 5743 5735 5729 5724 5722 5721 5722 5725 5728 5728 5729 5729 5728 5727 5725 5724 5722 5719 5718 5713 5710 5707 5705 5703 5703 5698 5695 5700 5702 5705 5706 5706 5705 5703 5702
5736 5742 5747 5749 5747 5746 5743 5739 5735 5729 5722 5717 5714 5712 5712 5716 5720 5722 5723 5724 5724 5723 5722 5721 5719 5716 5715 5712 5709 5707 5704 5700 5697 5695 5692 5691 5693 5698 5701 5701 5701 5700 5698